Wind_Speed
30 31 32 33 35 36 35 32 30 30 30 29 30 30 30 30 29 29 28 27 25 24 23 22 21 20 20 20 19 18 17 16 15 15 14 13 13 12 12 11 11 10 9 9 9 8 8 8 7
31 33 34 35 37 37 34 31 32 32 32 31 31 31 31 31 31 30 30 29 27 26 25 24 23 22 22 21 21 20 19 18 17 16 16 15 15 14 14 13 12 12 11 11 10 10 9 9 9
32 34 35 37 38 37 34 33 33 34 33 33 32 32 32 33 32 31 31 31 30 28 27 27 26 25 24 23 22 21 21 20 19 19 18 17 17 16 16 15 14 14 13 12 12 12 11 11 10
34 36 37 38 38 35 35 35 35 35 34 34 34 34 35 34 33 33 34 33 32 30 29 29 28 27 26 25 25 24 23 22 21 21 20 19 19 18 17 17 16 15 15 14 14 13 13 12 12
35 36 38 39 39 37 35 36 36 37 36 35 36 36 36 35 35 35 35 35 34 32 32 31 30 29 28 27 26 26 25 24 23 22 22 21 20 20 20 19 18 17 17 16 16 15 14 14 14
35 37 38 39 38 37 37 37 38 38 38 37 38 39 37 37 37 37 37 37 35 34 33 33 32 31 30 29 29 28 27 26 25 25 24 23 22 22 21 20 20 19 18 18 18 17 17 16 16
35 37 38 38 38 38 37 37 39 39 39 39 40 41 39 39 39 39 39 38 37 36 35 35 34 33 32 31 30 30 29 28 27 27 26 25 24 24 23 23 22 22 21 20 20 19 18 18 17
35 36 37 37 37 37 37 39 40 40 39 39 41 42 41 41 41 40 40 40 38 38 37 36 36 34 34 33 32 32 31 30 29 29 28 26 26 26 26 26 25 24 23 22 22 21 20 20 19
35 36 37 37 38 37 38 40 41 40 40 40 42 43 42 43 43 42 42 42 40 39 38 37 37 36 36 35 34 34 33 32 31 31 30 29 28 28 28 28 27 26 25 25 24 23 21 21 21
35 36 37 37 38 37 38 41 42 42 41 41 42 43 44 44 44 44 43 43 42 41 40 39 39 38 37 37 36 36 34 34 33 32 31 30 30 30 29 29 29 28 28 27 25 25 24 22 22
35 35 36 37 38 39 39 40 42 42 41 42 42 43 43 44 44 44 45 44 43 42 42 41 41 41 39 39 38 37 36 35 35 34 32 31 31 31 30 30 30 29 29 28 27 27 26 25 23
32 32 34 36 38 40 41 41 42 42 41 42 43 44 44 44 44 45 45 45 44 43 43 43 42 42 41 40 40 39 38 37 36 35 33 33 32 32 31 31 31 30 30 29 28 28 27 26 25
32 33 33 35 36 39 41 43 42 41 41 42 43 44 45 44 44 45 46 46 45 44 44 44 44 43 43 41 41 40 39 39 37 36 35 34 33 33 33 32 32 32 31 30 30 29 29 28 27
30 32 34 34 36 37 40 41 42 41 41 43 44 44 44 44 44 45 47 47 46 46 45 45 45 44 44 43 42 41 40 39 38 37 37 36 35 35 34 34 33 33 32 31 31 30 30 29 28
30 32 34 35 35 35 37 40 41 41 41 42 43 44 44 45 45 46 47 48 47 47 46 45 45 45 44 43 43 41 40 39 38 38 38 37 36 35 35 35 35 34 33 33 32 31 31 30 29
30 31 32 33 35 35 37 39 39 41 42 42 42 43 43 44 45 46 47 47 48 47 47 46 46 46 45 43 43 42 40 40 39 39 39 38 37 36 35 36 36 35 34 34 33 33 32 31 30
28 30 30 32 34 35 37 38 37 39 42 42 42 42 43 43 44 45 46 47 48 48 47 48 47 47 45 44 44 43 42 41 40 39 39 38 37 37 36 36 36 35 35 34 34 33 32 32 32
28 29 29 29 31 34 35 36 36 37 40 41 42 42 43 42 43 43 45 47 48 48 48 49 49 48 46 45 44 43 43 42 41 40 39 38 37 37 36 36 36 36 36 35 35 34 34 33 33
27 27 28 27 29 31 32 33 34 34 37 38 39 40 41 42 42 43 44 46 48 48 48 48 48 48 48 47 45 44 44 43 42 41 41 39 38 38 37 36 36 36 36 36 36 35 35 35 34
26 27 28 27 28 30 29 29 30 30 32 34 36 38 39 40 41 41 43 45 47 49 48 48 48 48 48 47 46 45 44 44 43 43 42 41 39 38 37 37 37 37 37 37 36 36 35 35 35
25 25 25 26 27 27 28 27 27 29 31 31 32 34 36 38 40 41 42 44 46 48 49 49 49 49 48 47 46 45 45 44 44 43 42 41 41 39 38 38 38 39 38 36 37 38 37 37 36
25 24 23 24 25 25 25 27 25 27 28 29 31 33 33 35 38 40 40 43 46 48 49 49 49 48 48 48 47 46 45 45 44 44 42 42 41 40 40 39 39 40 39 38 37 37 38 37 36
23 23 22 23 23 24 24 26 24 25 26 27 28 30 32 34 36 38 40 41 44 47 48 48 48 48 48 48 48 47 46 46 46 45 44 43 42 42 41 40 39 39 40 39 39 38 37 37 37
22 21 21 21 22 23 22 24 22 23 23 24 25 28 30 33 35 37 38 40 42 45 47 48 48 49 49 47 47 49 48 47 46 46 45 45 44 43 43 42 40 39 40 40 39 40 38 37 36
21 20 20 21 21 21 19 20 20 21 23 23 24 26 27 30 32 35 36 38 40 43 45 46 47 48 49 49 48 49 48 47 47 46 46 46 45 45 44 44 43 42 41 40 40 40 39 38 37
22 21 20 20 21 20 18 18 19 21 22 23 24 25 26 28 30 33 35 37 39 42 44 45 45 46 48 49 49 49 48 46 45 46 46 46 46 45 45 45 44 43 43 43 41 40 39 38 38
22 20 20 21 21 21 20 20 21 21 21 22 23 25 26 27 28 31 32 35 37 41 42 43 43 44 45 47 48 49 47 46 45 44 44 45 46 45 44 44 44 43 43 43 41 40 40 39 38
22 21 21 21 20 21 21 21 21 21 21 22 23 24 26 27 28 29 30 32 35 38 40 39 41 43 43 44 47 48 48 47 44 44 44 44 44 45 45 45 44 43 43 42 42 41 40 39 39
22 21 21 21 21 20 21 21 21 22 22 22 23 24 24 24 27 29 30 31 33 36 38 38 41 42 43 43 46 47 47 47 46 45 44 44 43 43 43 45 45 44 43 43 43 42 42 40 39
23 22 20 21 20 20 20 20 20 21 23 23 23 23 23 23 25 27 30 31 31 33 34 36 37 39 42 43 44 46 45 45 46 44 43 44 44 44 44 43 43 43 43 43 42 42 42 41 40
Wind_Direction
255 255 254 252 251 250 249 249 249 247 247 246 246 245 244 243 242 242 241 240 238 235 234 234 234 234 233 233 233 234 236 238 239 240 240 242 243 243 244 245 245 247 248 250 254 259 264 268 273
255 254 253 252 251 250 249 250 249 247 247 246 245 245 245 243 242 243 243 241 238 236 234 234 234 234 234 233 234 235 237 238 240 241 243 245 246 248 249 248 248 249 251 252 253 259 264 269 273
256 255 254 252 251 252 251 250 250 248 246 246 245 245 245 243 242 242 242 240 238 236 235 235 234 234 235 235 235 237 238 240 242 243 244 246 248 249 250 250 249 250 251 254 256 260 264 268 273
257 255 253 252 252 253 252 250 249 248 247 246 246 245 244 244 243 242 242 240 238 236 235 235 236 236 236 236 236 238 239 241 244 245 245 246 248 249 250 250 249 250 252 255 258 260 263 268 272
258 255 253 253 252 252 251 250 249 248 247 247 247 246 244 244 244 242 242 241 239 236 235 235 235 236 237 237 238 239 240 242 244 245 245 246 248 249 249 249 249 250 253 255 258 260 263 266 270
258 255 254 253 252 251 250 250 249 248 248 247 246 246 245 244 243 243 242 240 239 237 235 235 235 236 237 238 239 240 241 243 244 245 246 247 248 248 248 247 249 251 252 255 258 260 262 265 268
258 256 255 254 251 249 248 249 250 249 249 248 248 247 245 242 241 241 241 240 239 237 235 235 236 236 237 239 240 241 242 244 245 245 246 248 248 248 248 249 249 250 252 255 257 259 263 265 268
257 257 256 253 251 250 248 248 249 250 250 250 249 248 245 244 242 241 240 239 238 237 236 236 235 236 238 239 241 242 243 244 245 246 246 248 249 249 249 249 249 250 252 253 256 259 262 264 267
256 256 256 253 251 250 249 248 249 251 250 249 249 248 245 244 242 240 240 239 238 237 237 237 236 236 237 239 240 242 243 245 246 246 247 248 249 249 249 249 249 250 252 253 255 258 261 263 266
256 258 257 254 252 252 251 250 251 252 250 248 248 247 245 244 243 241 240 239 238 237 236 236 237 237 238 239 241 242 243 245 246 247 248 249 250 250 250 250 249 250 251 253 255 257 260 263 265
259 258 257 255 253 253 254 252 252 253 252 250 249 247 245 244 243 240 239 239 238 237 236 236 237 237 237 239 240 242 243 244 246 248 248 249 250 250 250 250 250 250 252 253 254 256 259 262 264
261 259 259 258 256 254 254 253 253 253 253 251 250 249 246 244 242 240 239 238 238 237 237 236 237 237 238 238 239 241 243 244 247 248 249 249 250 250 251 250 251 251 252 253 255 255 258 261 264
264 262 261 257 257 256 254 252 252 252 251 250 249 248 245 243 242 240 238 237 237 236 236 235 236 237 238 239 240 241 243 245 247 248 249 249 250 251 252 251 251 251 253 254 255 256 258 260 263
267 264 263 261 259 259 255 253 252 251 251 250 248 246 244 242 241 239 237 237 236 236 235 235 237 238 239 241 240 241 243 245 247 247 248 248 250 251 252 251 251 252 253 255 255 256 258 259 262
268 266 266 264 261 260 258 254 252 251 251 250 248 246 243 242 241 239 238 237 236 236 236 235 237 238 240 242 241 241 243 245 246 246 246 248 250 251 252 252 251 252 254 255 256 256 257 259 261
269 269 268 265 263 261 259 255 254 252 251 250 248 245 243 242 241 240 239 237 236 236 235 235 236 238 239 241 242 242 242 244 244 244 245 247 249 250 251 252 251 252 254 255 255 256 257 259 260
271 271 271 267 263 261 260 259 258 255 251 249 247 245 244 243 242 240 239 238 237 236 235 234 235 237 239 240 242 243 244 245 243 243 244 246 249 251 252 252 251 251 253 255 255 256 257 259 260
275 274 276 272 265 263 261 261 260 256 252 249 246 245 243 242 242 241 239 238 237 236 235 234 234 236 238 240 242 242 244 245 244 243 244 247 248 250 252 252 250 251 252 254 255 256 258 259 261
281 280 279 274 270 267 265 265 261 257 252 249 246 245 244 243 242 242 240 238 237 237 236 235 235 236 238 239 240 242 243 245 244 244 244 245 248 250 251 252 250 251 253 254 256 257 258 259 260
285 284 281 277 273 271 269 266 261 257 253 250 248 246 244 243 242 242 241 239 237 236 236 235 236 236 237 238 239 242 243 244 244 243 243 246 248 249 250 252 250 250 252 255 257 259 258 260 261
286 285 283 280 277 274 273 269 263 257 254 254 250 247 246 245 244 243 242 239 237 236 235 235 237 238 238 238 238 241 241 242 243 242 244 245 246 248 250 251 250 250 252 255 257 258 260 261 262
288 286 285 284 281 280 276 272 267 262 260 257 251 248 246 246 244 243 241 240 238 236 235 235 237 238 238 238 239 242 242 242 242 243 243 244 245 247 249 251 251 251 252 254 257 259 260 261 261
291 287 284 286 286 285 281 276 272 267 262 260 253 249 246 246 245 243 241 239 238 237 236 235 236 237 238 239 240 241 243 243 243 243 244 244 245 247 249 250 251 252 253 255 258 259 261 261 263
294 287 285 287 287 287 285 278 275 267 264 262 256 251 249 247 246 244 243 241 240 238 237 236 236 237 237 238 241 241 243 244 243 243 244 244 245 247 248 249 250 251 254 255 258 259 261 263 264
295 289 288 289 288 288 286 279 277 273 266 262 257 253 251 249 247 245 243 243 242 239 237 237 238 239 239 239 240 241 242 243 243 244 244 244 245 247 249 251 251 252 253 255 258 259 261 263 263
294 291 288 288 288 287 286 282 279 276 271 266 262 256 254 252 250 248 246 245 242 240 238 237 239 239 240 241 241 241 241 243 242 243 244 244 245 247 249 250 250 252 254 255 258 260 261 262 264
292 291 288 285 287 288 287 284 280 274 271 268 265 259 256 253 251 249 248 246 243 242 240 239 239 240 240 241 241 240 241 242 242 242 243 245 245 246 248 249 250 251 253 255 257 258 259 262 264
291 291 288 287 291 294 290 287 284 277 273 269 264 261 260 255 253 252 251 248 245 242 240 240 241 242 242 242 241 241 241 241 241 243 244 245 246 248 249 249 248 249 252 254 256 257 259 260 262
291 289 286 284 286 292 294 290 288 282 277 274 269 264 261 257 253 254 254 252 248 243 241 243 244 243 244 243 242 241 241 242 243 244 244 245 246 249 250 249 249 250 252 254 255 257 259 260 263
289 289 285 284 285 287 288 290 289 283 279 274 271 267 264 261 259 259 256 255 250 244 243 244 245 245 245 244 243 242 241 243 243 245 246 247 248 250 250 249 250 251 253 255 257 257 259 260 263
Height
5795 5795 5796 5797 5798 5798 5802 5809 5812 5814 5817 5819 5821 5824 5826 5828 5830 5833 5833 5835 5838 5841 5843 5845 5847 5849 5850 5852 5854 5855 5857 5858 5858 5859 5860 5861 5862 5863 5864 5865 5865 5866 5866 5866 5867 5867 5867 5867 5867
5787 5787 5788 5788 5788 5790 5796 5802 5805 5807 5810 5813 5815 5817 5820 5822 5823 5826 5827 5830 5833 5837 5839 5841 5843 5845 5847 5849 5851 5852 5854 5855 5856 5857 5858 5859 5860 5860 5861 5862 5863 5863 5864 5864 5865 5865 5865 5865 5865
5778 5778 5778 5779 5780 5784 5791 5796 5798 5800 5803 5806 5808 5811 5813 5816 5818 5820 5822 5824 5828 5832 5834 5837 5839 5841 5843 5845 5847 5849 5850 5851 5852 5854 5855 5856 5856 5857 5858 5859 5860 5861 5861 5862 5862 5863 5863 5863 5863
5768 5769 5769 5770 5773 5779 5784 5788 5790 5793 5796 5798 5801 5803 5806 5810 5812 5814 5816 5819 5823 5826 5829 5832 5834 5836 5839 5841 5843 5844 5846 5848 5849 5850 5851 5852 5853 5854 5855 5856 5857 5858 5859 5859 5860 5860 5860 5861 5861
5758 5758 5759 5760 5765 5771 5775 5779 5781 5784 5788 5791 5793 5795 5799 5803 5805 5807 5810 5813 5816 5820 5823 5826 5828 5831 5833 5836 5838 5840 5841 5843 5844 5845 5846 5848 5849 5850 5851 5852 5853 5854 5856 5856 5857 5857 5857 5858 5858
5748 5747 5749 5751 5757 5763 5766 5769 5773 5776 5779 5782 5784 5787 5791 5794 5796 5799 5802 5806 5810 5814 5817 5820 5822 5825 5828 5830 5832 5834 5836 5838 5839 5840 5842 5843 5844 5845 5846 5847 5849 5850 5852 5853 5853 5853 5854 5854 5854
5739 5739 5740 5744 5748 5753 5758 5761 5764 5767 5770 5773 5775 5778 5783 5784 5787 5791 5794 5798 5802 5806 5810 5813 5816 5819 5822 5824 5826 5828 5830 5832 5833 5835 5836 5838 5839 5840 5841 5843 5844 5846 5847 5848 5849 5849 5850 5850 5851
5730 5731 5732 5736 5739 5744 5749 5751 5754 5757 5761 5764 5766 5769 5773 5776 5779 5782 5786 5790 5795 5799 5803 5806 5809 5812 5815 5817 5820 5822 5824 5826 5827 5829 5830 5832 5833 5835 5836 5837 5839 5841 5842 5843 5844 5845 5846 5846 5847
5721 5723 5724 5728 5732 5736 5739 5741 5745 5747 5750 5753 5755 5759 5763 5766 5769 5774 5778 5782 5786 5791 5794 5798 5801 5805 5808 5810 5813 5815 5817 5819 5821 5822 5824 5825 5827 5829 5830 5832 5833 5835 5837 5838 5839 5840 5841 5841 5842
5712 5714 5717 5721 5723 5726 5729 5732 5735 5737 5740 5743 5746 5749 5753 5756 5760 5765 5770 5773 5778 5782 5786 5790 5794 5797 5800 5803 5805 5808 5810 5813 5814 5816 5817 5819 5820 5822 5824 5826 5827 5829 5831 5832 5834 5835 5836 5837 5837
5704 5706 5709 5711 5713 5716 5719 5722 5724 5727 5731 5733 5736 5739 5743 5746 5751 5755 5759 5764 5768 5773 5777 5781 5785 5788 5792 5795 5797 5800 5803 5805 5807 5809 5811 5812 5814 5815 5817 5819 5821 5823 5824 5826 5828 5829 5831 5832 5833
5696 5698 5699 5702 5704 5706 5708 5711 5714 5717 5721 5723 5725 5728 5732 5736 5740 5744 5749 5754 5759 5763 5768 5772 5775 5779 5783 5785 5788 5792 5795 5798 5800 5802 5804 5805 5807 5809 5810 5812 5814 5816 5818 5820 5822 5823 5825 5826 5827
5687 5689 5690 5692 5695 5696 5698 5700 5703 5707 5710 5712 5714 5717 5721 5726 5730 5734 5738 5743 5749 5754 5758 5762 5765 5769 5773 5776 5780 5783 5786 5789 5792 5794 5796 5798 5800 5802 5804 5806 5808 5810 5812 5813 5815 5817 5819 5820 5822
5679 5680 5681 5683 5684 5685 5687 5689 5691 5696 5698 5701 5704 5707 5711 5715 5719 5724 5728 5733 5738 5743 5748 5753 5756 5760 5764 5767 5771 5774 5778 5780 5783 5786 5788 5791 5793 5795 5797 5799 5801 5803 5805 5807 5808 5810 5812 5814 5815
5672 5672 5673 5673 5674 5675 5677 5679 5681 5685 5687 5690 5693 5697 5701 5705 5709 5713 5718 5723 5728 5733 5738 5744 5748 5751 5755 5759 5762 5765 5768 5772 5774 5777 5780 5783 5785 5787 5790 5792 5794 5796 5798 5800 5802 5804 5805 5807 5809
5664 5663 5663 5665 5666 5666 5668 5669 5673 5675 5676 5679 5682 5686 5690 5694 5699 5703 5708 5713 5718 5723 5728 5734 5738 5741 5745 5749 5753 5756 5759 5762 5765 5768 5771 5774 5777 5779 5782 5784 5786 5788 5790 5793 5795 5797 5798 5800 5802
5655 5655 5654 5656 5656 5657 5657 5659 5663 5664 5665 5668 5671 5675 5680 5684 5688 5693 5698 5703 5708 5713 5718 5723 5728 5732 5736 5740 5744 5747 5750 5754 5757 5759 5763 5766 5769 5771 5773 5776 5778 5781 5783 5785 5787 5789 5791 5793 5795
5649 5648 5647 5647 5647 5648 5648 5650 5652 5654 5655 5658 5662 5666 5670 5674 5678 5683 5687 5692 5697 5703 5708 5713 5718 5722 5726 5730 5735 5738 5742 5745 5748 5751 5754 5757 5760 5763 5765 5768 5770 5772 5775 5778 5780 5782 5784 5785 5787
5642 5641 5640 5640 5639 5639 5640 5641 5643 5644 5646 5648 5652 5656 5660 5665 5669 5673 5677 5682 5687 5692 5698 5703 5708 5712 5717 5721 5726 5729 5733 5737 5740 5743 5746 5749 5752 5755 5758 5760 5763 5765 5768 5770 5772 5774 5776 5778 5779
5637 5635 5634 5634 5632 5631 5632 5633 5634 5635 5637 5641 5644 5647 5651 5655 5659 5663 5667 5672 5677 5683 5688 5692 5697 5702 5707 5711 5716 5720 5724 5728 5731 5734 5737 5740 5743 5747 5750 5752 5755 5758 5760 5762 5764 5766 5767 5770 5771
5632 5630 5628 5627 5627 5626 5625 5626 5628 5628 5630 5632 5635 5639 5642 5646 5650 5654 5658 5662 5667 5672 5678 5682 5687 5692 5697 5701 5706 5710 5714 5718 5722 5725 5729 5732 5735 5738 5741 5744 5746 5749 5752 5754 5756 5758 5760 5762 5763
5627 5626 5624 5622 5621 5620 5620 5620 5622 5622 5623 5625 5628 5631 5635 5638 5641 5645 5649 5653 5657 5662 5667 5672 5677 5682 5687 5691 5696 5700 5705 5709 5713 5717 5720 5723 5727 5730 5733 5735 5738 5741 5743 5746 5747 5749 5752 5753 5755
5622 5621 5620 5618 5617 5616 5616 5615 5617 5616 5617 5619 5622 5625 5628 5631 5633 5637 5640 5644 5648 5652 5657 5662 5667 5673 5677 5682 5686 5691 5695 5700 5703 5707 5711 5714 5718 5721 5724 5727 5730 5732 5735 5737 5739 5741 5743 5744 5746
5618 5617 5616 5614 5612 5613 5612 5611 5612 5612 5613 5614 5616 5618 5620 5623 5625 5628 5631 5635 5639 5643 5648 5653 5657 5663 5668 5673 5677 5682 5686 5690 5694 5698 5701 5705 5709 5712 5715 5718 5721 5723 5726 5728 5731 5733 5735 5736 5738
5615 5613 5611 5609 5608 5608 5609 5607 5608 5608 5608 5609 5610 5612 5614 5616 5618 5621 5624 5627 5630 5634 5639 5644 5648 5653 5658 5663 5668 5672 5677 5680 5685 5689 5692 5696 5699 5703 5706 5709 5712 5715 5717 5720 5722 5724 5726 5728 5729
5611 5610 5608 5606 5605 5605 5604 5603 5605 5604 5604 5604 5605 5606 5608 5610 5612 5614 5617 5620 5623 5626 5630 5635 5639 5644 5649 5654 5658 5663 5667 5671 5675 5679 5682 5686 5690 5693 5696 5700 5702 5705 5708 5711 5713 5716 5717 5719 5720
5607 5605 5604 5603 5600 5600 5600 5600 5600 5600 5600 5600 5600 5601 5602 5604 5606 5608 5610 5612 5616 5619 5622 5626 5631 5635 5640 5644 5648 5653 5657 5661 5665 5669 5672 5676 5680 5683 5686 5689 5693 5696 5699 5701 5704 5707 5709 5710 5712
5603 5602 5600 5599 5597 5595 5596 5596 5596 5595 5595 5595 5595 5595 5597 5598 5600 5601 5603 5605 5608 5611 5614 5617 5622 5626 5630 5634 5638 5643 5647 5651 5655 5659 5663 5667 5670 5674 5677 5680 5683 5686 5689 5692 5695 5697 5699 5700 5702
5599 5598 5596 5594 5593 5592 5591 5594 5592 5591 5590 5590 5590 5590 5591 5592 5594 5595 5597 5599 5601 5603 5606 5610 5613 5617 5620 5624 5629 5633 5638 5642 5646 5650 5654 5657 5661 5664 5667 5670 5673 5676 5679 5682 5685 5687 5689 5691 5693
5594 5593 5592 5592 5590 5588 5587 5590 5587 5586 5585 5584 5584 5585 5585 5586 5587 5588 5590 5592 5594 5596 5599 5602 5605 5609 5612 5616 5620 5624 5628 5632 5636 5640 5644 5648 5651 5654 5657 5660 5664 5667 5670 5672 5675 5677 5679 5681 5683